Time,TemperatureF,DewpointF,PressureIn,WindDirection,WindDirectionDegrees,WindSpeedMPH,WindSpeedGustMPH,Humidity,HourlyPrecipIn,Conditions,Clouds,dailyrainin,SoftwareType,DateUTC
2013-06-08 00:02:00,53.7,49.0,30.16,North,1,3.0,11.0,84,0.00,,,0.00,weatherlink.com 1.10,2013-06-08 07:02:00,
2013-06-08 00:17:00,53.4,49.0,30.16,West,280,4.0,11.0,84,0.00,,,0.00,weatherlink.com 1.10,2013-06-08 07:17:00,
2013-06-08 00:32:00,52.9,48.0,30.16,NE,39,3.0,13.0,84,0.00,,,0.00,weatherlink.com 1.10,2013-06-08 07:32:00,
2013-06-08 00:47:00,52.4,48.0,30.15,NNW,340,3.0,9.0,85,0.00,,,0.00,weatherlink.com 1.10,2013-06-08 07:47:00,
2013-06-08 01:03:00,52.2,48.0,30.15,NE,41,2.0,11.0,85,0.00,,,0.00,weatherlink.com 1.10,2013-06-08 08:03:00,
2013-06-08 01:18:00,52.1,48.0,30.16,NW,321,7.0,10.0,85,0.00,,,0.00,weatherlink.com 1.10,2013-06-08 08:18:00,
2013-06-08 01:33:00,52.0,48.0,30.16,NW,314,4.0,8.0,85,0.00,,,0.00,weatherlink.com 1.10,2013-06-08 08:33:00,
2013-06-08 01:48:00,51.8,48.0,30.16,NW,322,7.0,11.0,85,0.00,,,0.00,weatherlink.com 1.10,2013-06-08 08:48:00,
2013-06-08 02:03:00,51.7,47.0,30.15,NNE,15,5.0,11.0,85,0.00,,,0.00,weatherlink.com 1.10,2013-06-08 09:03:00,
2013-06-08 02:18:00,51.6,48.0,30.15,NW,312,1.0,9.0,86,0.00,,,0.00,weatherlink.com 1.10,2013-06-08 09:18:00,
2013-06-08 02:33:00,51.6,48.0,30.15,NE,51,2.0,10.0,86,0.00,,,0.00,weatherlink.com 1.10,2013-06-08 09:33:00,
2013-06-08 02:48:00,51.5,48.0,30.15,NW,308,6.0,7.0,86,0.00,,,0.00,weatherlink.com 1.10,2013-06-08 09:48:00,
2013-06-08 03:03:00,51.2,48.0,30.14,NE,34,2.0,9.0,87,0.00,,,0.00,weatherlink.com 1.10,2013-06-08 10:03:00,
2013-06-08 03:18:00,50.7,47.0,30.14,West,263,0.0,6.0,88,0.00,,,0.00,weatherlink.com 1.10,2013-06-08 10:18:00,
2013-06-08 03:33:00,50.3,47.0,30.15,West,262,3.0,5.0,89,0.00,,,0.00,weatherlink.com 1.10,2013-06-08 10:33:00,
2013-06-08 03:48:00,50.0,47.0,30.14,West,281,3.0,6.0,90,0.00,,,0.00,weatherlink.com 1.10,2013-06-08 10:48:00,
2013-06-08 04:03:00,49.7,47.0,30.14,West,262,0.0,5.0,90,0.00,,,0.00,weatherlink.com 1.10,2013-06-08 11:03:00,
2013-06-08 04:18:00,49.5,47.0,30.14,ESE,111,0.0,8.0,91,0.00,,,0.00,weatherlink.com 1.10,2013-06-08 11:18:00,
2013-06-08 04:33:00,49.2,47.0,30.14,West,274,1.0,6.0,91,0.00,,,0.00,weatherlink.com 1.10,2013-06-08 11:33:00,
2013-06-08 04:48:00,49.1,47.0,30.14,NNW,328,1.0,6.0,92,0.00,,,0.00,weatherlink.com 1.10,2013-06-08 11:48:00,
2013-06-08 05:03:00,49.1,47.0,30.15,North,11,1.0,7.0,92,0.00,,,0.00,weatherlink.com 1.10,2013-06-08 12:03:00,
2013-06-08 05:18:00,49.3,47.0,30.15,NE,44,1.0,7.0,91,0.00,,,0.00,weatherlink.com 1.10,2013-06-08 12:18:00,
2013-06-08 05:33:00,49.5,47.0,30.15,WNW,284,2.0,8.0,91,0.00,,,0.00,weatherlink.com 1.10,2013-06-08 12:33:00,
2013-06-08 05:48:00,49.7,47.0,30.15,SW,233,3.0,5.0,91,0.00,,,0.00,weatherlink.com 1.10,2013-06-08 12:48:00,
2013-06-08 06:03:00,49.8,47.0,30.16,West,271,4.0,10.0,90,0.00,,,0.00,weatherlink.com 1.10,2013-06-08 13:03:00,
2013-06-08 06:18:00,50.2,47.0,30.16,NW,315,3.0,8.0,90,0.00,,,0.00,weatherlink.com 1.10,2013-06-08 13:18:00,
2013-06-08 06:33:00,50.3,47.0,30.16,West,272,2.0,7.0,89,0.00,,,0.00,weatherlink.com 1.10,2013-06-08 13:33:00,
2013-06-08 06:48:00,50.0,47.0,30.16,NNW,342,1.0,5.0,90,0.00,,,0.00,weatherlink.com 1.10,2013-06-08 13:48:00,
2013-06-08 07:03:00,50.0,47.0,30.16,NW,316,1.0,6.0,90,0.00,,,0.00,weatherlink.com 1.10,2013-06-08 14:03:00,
2013-06-08 07:18:00,50.4,48.0,30.16,WNW,295,8.0,8.0,90,0.00,,,0.00,weatherlink.com 1.10,2013-06-08 14:18:00,
2013-06-08 07:34:00,50.7,48.0,30.15,WNW,290,2.0,8.0,90,0.00,,,0.00,weatherlink.com 1.10,2013-06-08 14:34:00,
2013-06-08 07:48:00,51.3,48.0,30.15,NW,305,2.0,8.0,89,0.00,,,0.00,weatherlink.com 1.10,2013-06-08 14:48:00,
2013-06-08 08:03:00,52.4,49.0,30.16,WNW,288,4.0,8.0,87,0.00,,,0.00,weatherlink.com 1.10,2013-06-08 15:03:00,
2013-06-08 08:18:00,53.5,50.0,30.15,West,278,5.0,7.0,86,0.00,,,0.00,weatherlink.com 1.10,2013-06-08 15:18:00,
2013-06-08 08:34:00,54.3,49.0,30.15,NW,323,3.0,9.0,83,0.00,,,0.00,weatherlink.com 1.10,2013-06-08 15:34:00,
2013-06-08 08:49:00,55.0,49.0,30.15,NW,314,4.0,8.0,81,0.00,,,0.00,weatherlink.com 1.10,2013-06-08 15:49:00,
2013-06-08 09:04:00,55.6,50.0,30.15,WSW,252,6.0,12.0,80,0.00,,,0.00,weatherlink.com 1.10,2013-06-08 16:04:00,
2013-06-08 09:19:00,56.5,50.0,30.15,West,276,8.0,9.0,78,0.00,,,0.00,weatherlink.com 1.10,2013-06-08 16:19:00,
2013-06-08 09:34:00,57.3,50.0,30.15,NW,310,3.0,10.0,76,0.00,,,0.00,weatherlink.com 1.10,2013-06-08 16:34:00,
2013-06-08 09:49:00,58.1,50.0,30.14,West,262,5.0,9.0,75,0.00,,,0.00,weatherlink.com 1.10,2013-06-08 16:49:00,
2013-06-08 10:04:00,58.7,50.0,30.14,West,277,3.0,11.0,74,0.00,,,0.00,weatherlink.com 1.10,2013-06-08 17:04:00,
2013-06-08 10:19:00,59.3,50.0,30.14,WNW,294,10.0,10.0,71,0.00,,,0.00,weatherlink.com 1.10,2013-06-08 17:19:00,
2013-06-08 10:34:00,59.3,50.0,30.14,WSW,255,4.0,9.0,70,0.00,,,0.00,weatherlink.com 1.10,2013-06-08 17:34:00,
2013-06-08 10:49:00,60.5,50.0,30.14,NW,310,3.0,10.0,68,0.00,,,0.00,weatherlink.com 1.10,2013-06-08 17:49:00,
2013-06-08 11:04:00,60.8,50.0,30.14,WNW,284,3.0,14.0,68,0.00,,,0.00,weatherlink.com 1.10,2013-06-08 18:04:00,
2013-06-08 11:19:00,61.6,50.0,30.14,WSW,253,4.0,11.0,66,0.00,,,0.00,weatherlink.com 1.10,2013-06-08 18:19:00,
2013-06-08 11:34:00,62.7,49.0,30.14,WNW,302,8.0,11.0,62,0.00,,,0.00,weatherlink.com 1.10,2013-06-08 18:34:00,
2013-06-08 11:49:00,63.3,50.0,30.14,WNW,284,6.0,11.0,62,0.00,,,0.00,weatherlink.com 1.10,2013-06-08 18:49:00,
2013-06-08 12:04:00,64.0,51.0,30.13,NNW,335,4.0,12.0,62,0.00,,,0.00,weatherlink.com 1.10,2013-06-08 19:04:00,
2013-06-08 12:19:00,65.3,51.0,30.13,West,266,9.0,10.0,60,0.00,,,0.00,weatherlink.com 1.10,2013-06-08 19:19:00,
2013-06-08 12:34:00,65.1,49.0,30.13,NNE,20,5.0,13.0,56,0.00,,,0.00,weatherlink.com 1.10,2013-06-08 19:34:00,
2013-06-08 12:49:00,66.2,49.0,30.13,West,274,7.0,13.0,55,0.00,,,0.00,weatherlink.com 1.10,2013-06-08 19:49:00,
2013-06-08 13:04:00,66.7,50.0,30.12,West,271,6.0,11.0,56,0.00,,,0.00,weatherlink.com 1.10,2013-06-08 20:04:00,
2013-06-08 13:19:00,67.6,52.0,30.12,West,271,6.0,11.0,58,0.00,,,0.00,weatherlink.com 1.10,2013-06-08 20:19:00,
2013-06-08 13:34:00,68.1,52.0,30.12,WNW,291,0.0,13.0,56,0.00,,,0.00,weatherlink.com 1.10,2013-06-08 20:34:00,
2013-06-08 13:49:00,68.4,51.0,30.11,NW,309,3.0,10.0,54,0.00,,,0.00,weatherlink.com 1.10,2013-06-08 20:49:00,
2013-06-08 14:04:00,69.6,53.0,30.11,WSW,256,6.0,11.0,55,0.00,,,0.00,weatherlink.com 1.10,2013-06-08 21:04:00,
2013-06-08 14:20:00,69.9,52.0,30.10,WNW,287,3.0,9.0,54,0.00,,,0.00,weatherlink.com 1.10,2013-06-08 21:20:00,
2013-06-08 14:35:00,70.4,52.0,30.10,West,264,8.0,10.0,53,0.00,,,0.00,weatherlink.com 1.10,2013-06-08 21:35:00,
2013-06-08 14:50:00,70.8,53.0,30.10,WSW,254,5.0,9.0,54,0.00,,,0.00,weatherlink.com 1.10,2013-06-08 21:50:00,
2013-06-08 15:05:00,70.9,53.0,30.10,West,276,8.0,13.0,53,0.00,,,0.00,weatherlink.com 1.10,2013-06-08 22:05:00,
2013-06-08 15:20:00,71.1,53.0,30.10,West,278,8.0,13.0,54,0.00,,,0.00,weatherlink.com 1.10,2013-06-08 22:20:00,
2013-06-08 15:35:00,71.4,54.0,30.09,WSW,257,5.0,16.0,54,0.00,,,0.00,weatherlink.com 1.10,2013-06-08 22:35:00,
2013-06-08 15:50:00,71.5,53.0,30.09,West,271,6.0,12.0,53,0.00,,,0.00,weatherlink.com 1.10,2013-06-08 22:50:00,
2013-06-08 16:05:00,71.7,55.0,30.09,WNW,287,7.0,10.0,55,0.00,,,0.00,weatherlink.com 1.10,2013-06-08 23:05:00,
2013-06-08 16:20:00,71.8,55.0,30.09,NNW,338,2.0,12.0,56,0.00,,,0.00,weatherlink.com 1.10,2013-06-08 23:20:00,
2013-06-08 16:35:00,72.3,55.0,30.08,NW,322,3.0,11.0,54,0.00,,,0.00,weatherlink.com 1.10,2013-06-08 23:35:00,
2013-06-08 16:50:00,72.0,54.0,30.08,SW,235,8.0,11.0,53,0.00,,,0.00,weatherlink.com 1.10,2013-06-08 23:50:00,
2013-06-08 17:05:00,72.7,55.0,30.08,West,259,2.0,7.0,55,0.00,,,0.00,weatherlink.com 1.10,2013-06-09 00:05:00,
2013-06-08 17:20:00,73.1,56.0,30.07,NW,306,1.0,9.0,55,0.00,,,0.00,weatherlink.com 1.10,2013-06-09 00:20:00,
2013-06-08 17:35:00,73.0,56.0,30.07,WNW,287,6.0,11.0,55,0.00,,,0.00,weatherlink.com 1.10,2013-06-09 00:35:00,
2013-06-08 17:50:00,72.7,56.0,30.07,West,260,2.0,10.0,57,0.00,,,0.00,weatherlink.com 1.10,2013-06-09 00:50:00,
2013-06-08 18:05:00,72.4,56.0,30.07,NNE,20,4.0,9.0,56,0.00,,,0.00,weatherlink.com 1.10,2013-06-09 01:05:00,
2013-06-08 18:20:00,71.3,55.0,30.07,NNW,330,4.0,9.0,56,0.00,,,0.00,weatherlink.com 1.10,2013-06-09 01:20:00,
2013-06-08 18:35:00,70.9,54.0,30.07,North,6,3.0,12.0,56,0.00,,,0.00,weatherlink.com 1.10,2013-06-09 01:35:00,
2013-06-08 18:50:00,69.7,54.0,30.06,North,354,4.0,12.0,57,0.00,,,0.00,weatherlink.com 1.10,2013-06-09 01:50:00,
2013-06-08 19:05:00,69.3,54.0,30.06,West,271,1.0,11.0,58,0.00,,,0.00,weatherlink.com 1.10,2013-06-09 02:05:00,
2013-06-08 19:20:00,68.5,53.0,30.06,NW,324,3.0,11.0,59,0.00,,,0.00,weatherlink.com 1.10,2013-06-09 02:20:00,
2013-06-08 19:35:00,67.3,52.0,30.06,WNW,294,6.0,11.0,59,0.00,,,0.00,weatherlink.com 1.10,2013-06-09 02:35:00,
2013-06-08 19:50:00,66.5,52.0,30.06,NE,47,3.0,11.0,61,0.00,,,0.00,weatherlink.com 1.10,2013-06-09 02:50:00,
2013-06-08 20:05:00,65.4,52.0,30.06,NW,309,3.0,10.0,62,0.00,,,0.00,weatherlink.com 1.10,2013-06-09 03:05:00,
2013-06-08 20:20:00,64.5,51.0,30.06,NNW,331,2.0,12.0,63,0.00,,,0.00,weatherlink.com 1.10,2013-06-09 03:20:00,
2013-06-08 20:35:00,63.1,51.0,30.06,NW,316,6.0,14.0,65,0.00,,,0.00,weatherlink.com 1.10,2013-06-09 03:35:00,
2013-06-08 20:50:00,61.4,50.0,30.07,NW,323,4.0,11.0,67,0.00,,,0.00,weatherlink.com 1.10,2013-06-09 03:50:00,
2013-06-08 21:05:00,60.1,50.0,30.07,East,82,3.0,16.0,69,0.00,,,0.00,weatherlink.com 1.10,2013-06-09 04:05:00,
2013-06-08 21:20:00,59.2,50.0,30.07,NNW,347,6.0,14.0,71,0.00,,,0.00,weatherlink.com 1.10,2013-06-09 04:20:00,
2013-06-08 21:35:00,58.6,50.0,30.07,NE,36,5.0,9.0,72,0.00,,,0.00,weatherlink.com 1.10,2013-06-09 04:35:00,
2013-06-08 21:50:00,58.0,49.0,30.07,NE,51,0.0,14.0,73,0.00,,,0.00,weatherlink.com 1.10,2013-06-09 04:50:00,
2013-06-08 22:05:00,57.4,49.0,30.08,NNE,13,6.0,14.0,74,0.00,,,0.00,weatherlink.com 1.10,2013-06-09 05:05:00,
2013-06-08 22:20:00,56.8,49.0,30.08,NE,35,3.0,13.0,75,0.00,,,0.00,weatherlink.com 1.10,2013-06-09 05:20:00,
2013-06-08 22:35:00,56.1,49.0,30.09,West,273,3.0,12.0,76,0.00,,,0.00,weatherlink.com 1.10,2013-06-09 05:35:00,
2013-06-08 22:50:00,55.4,49.0,30.09,SE,134,3.0,8.0,78,0.00,,,0.00,weatherlink.com 1.10,2013-06-09 05:50:00,
2013-06-08 23:05:00,54.9,49.0,30.08,NNW,338,7.0,11.0,80,0.00,,,0.00,weatherlink.com 1.10,2013-06-09 06:05:00,
2013-06-08 23:20:00,54.4,49.0,30.09,NW,304,4.0,10.0,81,0.00,,,0.00,weatherlink.com 1.10,2013-06-09 06:20:00,
2013-06-08 23:35:00,54.1,49.0,30.09,NW,316,1.0,12.0,83,0.00,,,0.00,weatherlink.com 1.10,2013-06-09 06:35:00,
2013-06-08 23:50:00,53.6,49.0,30.08,WSW,256,2.0,11.0,84,0.00,,,0.00,weatherlink.com 1.10,2013-06-09 06:50:00,